Location: Beccas
(43.4309°N, 0.1528°E)
Time: 22:46:11
(UTC+00:00)

Cosmos 1703 - Pass Details

Date: 25 May 2022
Orbit: 518 x 535 km, 82.5° (Epoch: 01 July)

Event Time Altitude Azimuth Distance (km) Brightness Sun altitude
Exits shadow 03:23:15 14° 230° (SW) 1,543 4.9 -10.0°
Maximum altitude 03:25:58 28° 285° (WNW) 1,015 4.4 -9.7°
Drops below altitude 10° 03:29:25 10° 346° (NNW) 1,796 6.3 -9.2°
Sets 03:31:48 0° 358° (N) 2,690 7.4 -8.9°
